www.luftgeist.de
Wetterdaten: aktuell Dienstag, 23.07.2019 23:55
Datum Zeit Auentemp. Sonne (%) Auenfeuchte Luftdruck Regenmenge Wind Windichtung Windichtung Sonnenschein Taupunkt Windchill Windben
23.07.2019 23:55 19,3 C 0 % 76 % 1020,2 hPa 0,0 l/m 0,0 km/h (0 Bft) W-SW 247 0 min 15,0 C 19,3 C 0,0 km/h (0 Bft)
23.07.2019 23:50 19,3 C 0 % 76 % 1020,2 hPa 0,0 l/m 0,0 km/h (0 Bft) SW 225 0 min 15,0 C 19,3 C 0,0 km/h (0 Bft)
23.07.2019 23:45 19,4 C 0 % 75 % 1020,1 hPa 0,0 l/m 0,2 km/h (0 Bft) W-SW 247 0 min 14,8 C 19,4 C 0,0 km/h (0 Bft)
23.07.2019 23:40 19,5 C 0 % 75 % 1020,1 hPa 0,0 l/m 0,2 km/h (0 Bft) W 270 0 min 14,9 C 19,5 C 0,0 km/h (0 Bft)
23.07.2019 23:35 19,7 C 0 % 75 % 1020,1 hPa 0,0 l/m 0,0 km/h (0 Bft) S 180 0 min 15,1 C 19,7 C 0,0 km/h (0 Bft)
23.07.2019 23:30 19,8 C 0 % 75 % 1020,1 hPa 0,0 l/m 0,0 km/h (0 Bft) SW 225 0 min 15,2 C 19,8 C 0,0 km/h (0 Bft)
23.07.2019 23:25 19,9 C 0 % 75 % 1020,2 hPa 0,0 l/m 0,0 km/h (0 Bft) W-SW 247 0 min 15,3 C 19,9 C 0,0 km/h (0 Bft)
23.07.2019 23:20 20,0 C 0 % 74 % 1020,2 hPa 0,0 l/m 0,0 km/h (0 Bft) W-SW 247 0 min 15,2 C 20,0 C 0,0 km/h (0 Bft)
23.07.2019 23:15 20,2 C 0 % 73 % 1020,2 hPa 0,0 l/m 0,0 km/h (0 Bft) W-SW 247 0 min 15,2 C 20,2 C 0,0 km/h (0 Bft)
23.07.2019 23:10 20,3 C 0 % 73 % 1020,2 hPa 0,0 l/m 0,0 km/h (0 Bft) S 180 0 min 15,3 C 20,3 C 0,0 km/h (0 Bft)
23.07.2019 23:05 20,5 C 0 % 73 % 1019,9 hPa 0,0 l/m 0,0 km/h (0 Bft) W-NW 292 0 min 15,5 C 20,5 C 0,0 km/h (0 Bft)
23.07.2019 23:00 20,7 C 0 % 73 % 1019,9 hPa 0,0 l/m 0,0 km/h (0 Bft) SW 225 0 min 15,7 C 20,7 C 0,0 km/h (0 Bft)
23.07.2019 22:55 20,8 C 0 % 73 % 1019,9 hPa 0,0 l/m 0,6 km/h (0 Bft) W-SW 247 0 min 15,8 C 20,8 C 0,0 km/h (0 Bft)
23.07.2019 22:50 20,9 C 0 % 73 % 1019,9 hPa 0,0 l/m 0,8 km/h (0 Bft) W-NW 292 0 min 15,9 C 20,9 C 0,0 km/h (0 Bft)
23.07.2019 22:45 21,1 C 0 % 72 % 1019,7 hPa 0,0 l/m 0,2 km/h (0 Bft) S-SO 157 0 min 15,8 C 21,1 C 0,0 km/h (0 Bft)
23.07.2019 22:40 21,3 C 0 % 71 % 1019,7 hPa 0,0 l/m 0,0 km/h (0 Bft) O-NO 67 0 min 15,8 C 21,3 C 0,0 km/h (0 Bft)
23.07.2019 22:35 21,5 C 0 % 70 % 1019,7 hPa 0,0 l/m 0,0 km/h (0 Bft) SO 135 0 min 15,8 C 21,5 C 0,0 km/h (0 Bft)
23.07.2019 22:30 21,7 C 0 % 70 % 1019,7 hPa 0,0 l/m 0,0 km/h (0 Bft) W-SW 247 0 min 16,0 C 21,7 C 0,0 km/h (0 Bft)
23.07.2019 22:25 21,9 C 0 % 69 % 1019,8 hPa 0,0 l/m 0,2 km/h (0 Bft) W-SW 247 0 min 15,9 C 21,9 C 0,0 km/h (0 Bft)
23.07.2019 22:20 22,1 C 0 % 69 % 1019,8 hPa 0,0 l/m 0,3 km/h (0 Bft) S-SO 157 0 min 16,1 C 22,1 C 0,0 km/h (0 Bft)
23.07.2019 22:15 22,4 C 0 % 68 % 1019,8 hPa 0,0 l/m 0,3 km/h (0 Bft) S-SW 202 0 min 16,2 C 22,4 C 0,0 km/h (0 Bft)
23.07.2019 22:10 22,6 C 0 % 68 % 1019,8 hPa 0,0 l/m 0,3 km/h (0 Bft) SW 225 0 min 16,4 C 22,6 C 0,0 km/h (0 Bft)
23.07.2019 22:05 23,1 C 0 % 66 % 1019,6 hPa 0,0 l/m 0,3 km/h (0 Bft) W-SW 247 0 min 16,4 C 23,1 C 1,8 km/h (1 Bft)
23.07.2019 22:00 23,4 C 0 % 66 % 1019,6 hPa 0,0 l/m 0,3 km/h (0 Bft) W-NW 292 0 min 16,7 C 23,4 C 2,6 km/h (1 Bft)
23.07.2019 21:55 23,7 C 0 % 66 % 1019,6 hPa 0,0 l/m 0,0 km/h (0 Bft) W 270 0 min 17,0 C 23,7 C 0,0 km/h (0 Bft)
23.07.2019 21:50 23,9 C 0 % 65 % 1019,6 hPa 0,0 l/m 0,0 km/h (0 Bft) W 270 0 min 16,9 C 23,9 C 0,0 km/h (0 Bft)
23.07.2019 21:45 24,2 C 0 % 65 % 1019,8 hPa 0,0 l/m 0,0 km/h (0 Bft) NW 315 0 min 17,2 C 24,2 C 0,0 km/h (0 Bft)
23.07.2019 21:40 24,4 C 0 % 64 % 1019,8 hPa 0,0 l/m 0,0 km/h (0 Bft) W 270 0 min 17,1 C 24,4 C 0,0 km/h (0 Bft)
23.07.2019 21:35 24,8 C 0 % 63 % 1019,8 hPa 0,0 l/m 0,0 km/h (0 Bft) W-SW 247 0 min 17,3 C 24,8 C 0,0 km/h (0 Bft)
23.07.2019 21:30 25,0 C 0 % 62 % 1019,8 hPa 0,0 l/m 0,2 km/h (0 Bft) SW 225 0 min 17,2 C 25,0 C 0,0 km/h (0 Bft)
23.07.2019 21:25 25,5 C 2 % 62 % 1019,8 hPa 0,0 l/m 0,2 km/h (0 Bft) S-SO 157 0 min 17,7 C 25,5 C 0,0 km/h (0 Bft)
23.07.2019 21:20 25,7 C 5 % 61 % 1019,8 hPa 0,0 l/m 0,0 km/h (0 Bft) W 270 0 min 17,6 C 25,7 C 1,8 km/h (1 Bft)
23.07.2019 21:15 26,0 C 10 % 59 % 1019,8 hPa 0,0 l/m 0,0 km/h (0 Bft) W 270 0 min 17,4 C 26,0 C 0,0 km/h (0 Bft)
23.07.2019 21:10 26,3 C 14 % 58 % 1019,8 hPa 0,0 l/m 0,0 km/h (0 Bft) SW 225 0 min 17,4 C 26,3 C 0,0 km/h (0 Bft)
23.07.2019 21:05 26,6 C 19 % 57 % 1019,6 hPa 0,0 l/m 0,5 km/h (0 Bft) W 270 5 min 17,4 C 26,6 C 0,0 km/h (0 Bft)
23.07.2019 21:00 26,9 C 35 % 55 % 1019,6 hPa 0,0 l/m 0,5 km/h (0 Bft) S-SW 202 5 min 17,1 C 26,9 C 0,0 km/h (0 Bft)
23.07.2019 20:55 27,2 C 43 % 55 % 1019,6 hPa 0,0 l/m 0,2 km/h (0 Bft) S-SW 202 5 min 17,4 C 27,2 C 0,0 km/h (0 Bft)
23.07.2019 20:50 27,3 C 48 % 54 % 1019,6 hPa 0,0 l/m 0,0 km/h (0 Bft) W 270 5 min 17,2 C 27,3 C 0,0 km/h (0 Bft)
23.07.2019 20:45 27,7 C 52 % 52 % 1019,6 hPa 0,0 l/m 0,5 km/h (0 Bft) S-SW 202 5 min 16,9 C 27,7 C 0,0 km/h (0 Bft)
23.07.2019 20:40 27,9 C 55 % 51 % 1019,6 hPa 0,0 l/m 0,6 km/h (0 Bft) W-SW 247 5 min 16,8 C 27,9 C 0,0 km/h (0 Bft)
23.07.2019 20:35 28,3 C 58 % 50 % 1019,6 hPa 0,0 l/m 0,5 km/h (0 Bft) W-SW 247 5 min 16,9 C 28,3 C 2,3 km/h (1 Bft)
23.07.2019 20:30 28,5 C 61 % 49 % 1019,6 hPa 0,0 l/m 0,6 km/h (0 Bft) S 180 5 min 16,7 C 28,5 C 0,0 km/h (0 Bft)
23.07.2019 20:25 28,8 C 64 % 49 % 1019,8 hPa 0,0 l/m 1,1 km/h (1 Bft) W 270 5 min 17,0 C 28,8 C 0,0 km/h (0 Bft)
23.07.2019 20:20 29,1 C 66 % 47 % 1019,8 hPa 0,0 l/m 1,4 km/h (1 Bft) W 270 5 min 16,6 C 29,1 C 2,3 km/h (1 Bft)
23.07.2019 20:15 29,3 C 68 % 46 % 1019,8 hPa 0,0 l/m 1,8 km/h (1 Bft) W-NW 292 5 min 16,5 C 29,3 C 2,3 km/h (1 Bft)
23.07.2019 20:10 29,4 C 70 % 44 % 1019,8 hPa 0,0 l/m 2,4 km/h (1 Bft) W 270 5 min 15,8 C 29,4 C 2,7 km/h (1 Bft)
23.07.2019 20:05 29,7 C 72 % 43 % 1019,8 hPa 0,0 l/m 2,9 km/h (1 Bft) NW 315 5 min 15,8 C 29,7 C 4,0 km/h (1 Bft)
23.07.2019 20:00 29,9 C 73 % 43 % 1019,8 hPa 0,0 l/m 2,4 km/h (1 Bft) NW 315 5 min 15,9 C 29,9 C 2,9 km/h (1 Bft)
23.07.2019 19:55 30,1 C 75 % 42 % 1019,8 hPa 0,0 l/m 1,8 km/h (1 Bft) NW 315 5 min 15,7 C 30,1 C 3,1 km/h (1 Bft)
23.07.2019 19:50 30,3 C 76 % 41 % 1019,8 hPa 0,0 l/m 3,1 km/h (1 Bft) N-NO 22 5 min 15,6 C 30,3 C 3,2 km/h (1 Bft)
23.07.2019 19:45 30,3 C 77 % 40 % 1019,8 hPa 0,0 l/m 4,0 km/h (1 Bft) W-NW 292 5 min 15,2 C 30,3 C 3,2 km/h (1 Bft)
23.07.2019 19:40 30,4 C 78 % 40 % 1019,8 hPa 0,0 l/m 3,7 km/h (1 Bft) NW 315 5 min 15,3 C 30,4 C 5,3 km/h (1 Bft)
23.07.2019 19:35 30,5 C 79 % 40 % 1019,8 hPa 0,0 l/m 1,9 km/h (1 Bft) N-NW 337 5 min 15,3 C 30,5 C 4,8 km/h (1 Bft)
23.07.2019 19:30 30,5 C 80 % 39 % 1019,8 hPa 0,0 l/m 1,3 km/h (1 Bft) N-NW 337 5 min 15,0 C 30,5 C 3,9 km/h (1 Bft)
23.07.2019 19:25 30,7 C 81 % 39 % 1019,9 hPa 0,0 l/m 1,4 km/h (1 Bft) N-NO 22 5 min 15,1 C 30,7 C 0,0 km/h (0 Bft)
23.07.2019 19:20 30,7 C 82 % 38 % 1019,9 hPa 0,0 l/m 1,6 km/h (1 Bft) N-NW 337 5 min 14,7 C 30,7 C 3,7 km/h (1 Bft)
23.07.2019 19:15 30,7 C 82 % 39 % 1019,9 hPa 0,0 l/m 1,9 km/h (1 Bft) W-NW 292 5 min 15,1 C 30,7 C 2,3 km/h (1 Bft)
23.07.2019 19:10 30,7 C 83 % 38 % 1019,9 hPa 0,0 l/m 1,9 km/h (1 Bft) N-NO 22 5 min 14,7 C 30,7 C 2,3 km/h (1 Bft)
23.07.2019 19:05 30,8 C 84 % 39 % 1020,1 hPa 0,0 l/m 2,7 km/h (1 Bft) N-NW 337 5 min 15,2 C 30,8 C 1,6 km/h (1 Bft)
23.07.2019 19:00 30,9 C 84 % 38 % 1020,1 hPa 0,0 l/m 2,4 km/h (1 Bft) W-NW 292 0 min 14,9 C 30,9 C 3,4 km/h (1 Bft)
23.07.2019 18:55 30,9 C 85 % 39 % 1020,1 hPa 0,0 l/m 1,6 km/h (1 Bft) N-NO 22 0 min 15,3 C 30,9 C 6,3 km/h (2 Bft)
23.07.2019 18:50 30,9 C 85 % 40 % 1020,1 hPa 0,0 l/m 0,8 km/h (0 Bft) N 360 0 min 15,7 C 30,9 C 0,0 km/h (0 Bft)
23.07.2019 18:45 31,1 C 85 % 41 % 1020,1 hPa 0,0 l/m 1,0 km/h (0 Bft) S 180 5 min 16,3 C 31,1 C 2,3 km/h (1 Bft)
23.07.2019 18:40 31,1 C 86 % 43 % 1020,1 hPa 0,0 l/m 1,1 km/h (1 Bft) S-SW 202 5 min 17,0 C 31,1 C 1,6 km/h (1 Bft)
23.07.2019 18:35 31,2 C 86 % 43 % 1020,1 hPa 0,0 l/m 2,1 km/h (1 Bft) S-SW 202 5 min 17,1 C 31,2 C 2,4 km/h (1 Bft)
23.07.2019 18:30 31,2 C 86 % 41 % 1020,1 hPa 0,0 l/m 2,3 km/h (1 Bft) SW 225 5 min 16,4 C 31,2 C 3,7 km/h (1 Bft)
23.07.2019 18:25 31,0 C 87 % 39 % 1020,3 hPa 0,0 l/m 1,8 km/h (1 Bft) S-SW 202 5 min 15,4 C 31,0 C 0,0 km/h (0 Bft)
23.07.2019 18:20 31,0 C 87 % 41 % 1020,3 hPa 0,0 l/m 3,4 km/h (1 Bft) S-SW 202 5 min 16,2 C 31,0 C 2,6 km/h (1 Bft)
23.07.2019 18:15 31,3 C 87 % 39 % 1020,3 hPa 0,0 l/m 4,0 km/h (1 Bft) N-NW 337 5 min 15,7 C 31,3 C 4,2 km/h (1 Bft)
23.07.2019 18:10 31,3 C 88 % 39 % 1020,3 hPa 0,0 l/m 3,2 km/h (1 Bft) S 180 5 min 15,7 C 31,3 C 10,6 km/h (2 Bft)
23.07.2019 18:05 31,7 C 88 % 42 % 1020,4 hPa 0,0 l/m 1,0 km/h (0 Bft) W-SW 247 5 min 17,2 C 31,7 C 2,4 km/h (1 Bft)
23.07.2019 18:00 31,4 C 88 % 43 % 1020,4 hPa 0,0 l/m 1,1 km/h (1 Bft) W 270 5 min 17,3 C 31,4 C 0,0 km/h (0 Bft)
23.07.2019 17:55 31,3 C 88 % 39 % 1020,4 hPa 0,0 l/m 1,8 km/h (1 Bft) S-SW 202 5 min 15,7 C 31,3 C 4,3 km/h (1 Bft)
23.07.2019 17:50 31,2 C 88 % 39 % 1020,4 hPa 0,0 l/m 1,4 km/h (1 Bft) NO 45 5 min 15,6 C 31,2 C 0,0 km/h (0 Bft)
23.07.2019 17:45 31,1 C 88 % 40 % 1020,4 hPa 0,0 l/m 2,7 km/h (1 Bft) SO 135 5 min 15,9 C 31,1 C 3,2 km/h (1 Bft)
23.07.2019 17:40 31,1 C 88 % 40 % 1020,4 hPa 0,0 l/m 2,3 km/h (1 Bft) N-NW 337 5 min 15,9 C 31,1 C 2,9 km/h (1 Bft)
23.07.2019 17:35 31,0 C 88 % 38 % 1020,4 hPa 0,0 l/m 2,7 km/h (1 Bft) O 90 5 min 15,0 C 31,0 C 3,4 km/h (1 Bft)
23.07.2019 17:30 31,0 C 88 % 39 % 1020,4 hPa 0,0 l/m 3,2 km/h (1 Bft) O-NO 67 5 min 15,4 C 31,0 C 2,9 km/h (1 Bft)
23.07.2019 17:25 30,9 C 88 % 39 % 1020,6 hPa 0,0 l/m 2,3 km/h (1 Bft) N 360 5 min 15,3 C 30,9 C 3,7 km/h (1 Bft)
23.07.2019 17:20 30,9 C 89 % 41 % 1020,6 hPa 0,0 l/m 2,1 km/h (1 Bft) W-NW 292 5 min 16,1 C 30,9 C 2,4 km/h (1 Bft)
23.07.2019 17:15 30,9 C 89 % 38 % 1020,6 hPa 0,0 l/m 3,7 km/h (1 Bft) N-NO 22 5 min 14,9 C 30,9 C 0,0 km/h (0 Bft)
23.07.2019 17:10 30,8 C 88 % 40 % 1020,6 hPa 0,0 l/m 3,2 km/h (1 Bft) NW 315 5 min 15,6 C 30,8 C 4,7 km/h (1 Bft)
23.07.2019 17:05 30,8 C 89 % 40 % 1020,8 hPa 0,0 l/m 3,4 km/h (1 Bft) N 360 5 min 15,6 C 30,8 C 3,1 km/h (1 Bft)
23.07.2019 17:00 30,6 C 88 % 42 % 1020,8 hPa 0,0 l/m 3,9 km/h (1 Bft) W 270 5 min 16,2 C 30,6 C 1,8 km/h (1 Bft)
23.07.2019 16:55 30,6 C 89 % 40 % 1020,8 hPa 0,0 l/m 3,9 km/h (1 Bft) W-NW 292 5 min 15,4 C 30,6 C 4,2 km/h (1 Bft)
23.07.2019 16:50 30,7 C 89 % 40 % 1020,8 hPa 0,0 l/m 4,2 km/h (1 Bft) N-NO 22 5 min 15,5 C 30,7 C 5,0 km/h (1 Bft)
23.07.2019 16:45 30,6 C 89 % 40 % 1020,9 hPa 0,0 l/m 3,5 km/h (1 Bft) N-NW 337 5 min 15,4 C 30,6 C 5,3 km/h (1 Bft)
23.07.2019 16:40 30,7 C 89 % 39 % 1020,9 hPa 0,0 l/m 3,1 km/h (1 Bft) N-NO 22 5 min 15,1 C 30,7 C 6,3 km/h (2 Bft)
23.07.2019 16:35 30,8 C 89 % 40 % 1020,9 hPa 0,0 l/m 2,1 km/h (1 Bft) NW 315 5 min 15,6 C 30,8 C 2,6 km/h (1 Bft)
23.07.2019 16:30 30,5 C 88 % 43 % 1020,9 hPa 0,0 l/m 2,6 km/h (1 Bft) O-NO 67 5 min 16,5 C 30,5 C 4,0 km/h (1 Bft)
23.07.2019 16:25 30,5 C 88 % 42 % 1021,2 hPa 0,0 l/m 4,7 km/h (1 Bft) N-NW 337 5 min 16,1 C 30,5 C 2,7 km/h (1 Bft)
23.07.2019 16:20 30,5 C 88 % 41 % 1021,2 hPa 0,0 l/m 4,7 km/h (1 Bft) W-NW 292 5 min 15,7 C 30,5 C 5,8 km/h (2 Bft)
23.07.2019 16:15 30,3 C 88 % 40 % 1021,2 hPa 0,0 l/m 5,0 km/h (1 Bft) W-SW 247 5 min 15,2 C 30,3 C 3,7 km/h (1 Bft)
23.07.2019 16:10 30,4 C 88 % 40 % 1021,2 hPa 0,0 l/m 6,3 km/h (2 Bft) N-NO 22 5 min 15,3 C 30,4 C 7,4 km/h (2 Bft)
23.07.2019 16:05 30,7 C 88 % 40 % 1021,1 hPa 0,0 l/m 6,1 km/h (2 Bft) N-NO 22 5 min 15,5 C 30,7 C 8,2 km/h (2 Bft)
23.07.2019 16:00 30,7 C 88 % 41 % 1021,1 hPa 0,0 l/m 4,7 km/h (1 Bft) W 270 5 min 15,9 C 30,7 C 8,7 km/h (2 Bft)
23.07.2019 15:55 30,8 C 89 % 41 % 1021,1 hPa 0,0 l/m 3,5 km/h (1 Bft) NW 315 5 min 16,0 C 30,8 C 11,3 km/h (2 Bft)
23.07.2019 15:50 30,5 C 89 % 41 % 1021,1 hPa 0,0 l/m 3,4 km/h (1 Bft) N-NO 22 5 min 15,7 C 30,5 C 3,4 km/h (1 Bft)
23.07.2019 15:45 30,3 C 89 % 40 % 1021,2 hPa 0,0 l/m 2,1 km/h (1 Bft) N-NO 22 5 min 15,2 C 30,3 C 10,0 km/h (2 Bft)
23.07.2019 15:40 30,6 C 89 % 40 % 1021,2 hPa 0,0 l/m 1,6 km/h (1 Bft) N-NW 337 5 min 15,4 C 30,6 C 3,9 km/h (1 Bft)
23.07.2019 15:35 30,4 C 88 % 41 % 1021,2 hPa 0,0 l/m 3,1 km/h (1 Bft) S-SW 202 5 min 15,6 C 30,4 C 2,4 km/h (1 Bft)
23.07.2019 15:30 30,1 C 89 % 40 % 1021,2 hPa 0,0 l/m 2,4 km/h (1 Bft) NO 45 5 min 15,0 C 30,1 C 1,8 km/h (1 Bft)
23.07.2019 15:25 30,2 C 89 % 42 % 1021,5 hPa 0,0 l/m 3,1 km/h (1 Bft) W 270 5 min 15,8 C 30,2 C 4,7 km/h (1 Bft)
23.07.2019 15:20 30,0 C 88 % 42 % 1021,5 hPa 0,0 l/m 4,2 km/h (1 Bft) O-SO 112 5 min 15,7 C 30,0 C 3,2 km/h (1 Bft)
23.07.2019 15:15 30,1 C 88 % 41 % 1021,5 hPa 0,0 l/m 5,0 km/h (1 Bft) NW 315 5 min 15,4 C 30,1 C 7,6 km/h (2 Bft)
23.07.2019 15:10 30,0 C 88 % 42 % 1021,5 hPa 0,0 l/m 5,8 km/h (2 Bft) N-NO 22 5 min 15,7 C 30,0 C 2,4 km/h (1 Bft)
23.07.2019 15:05 30,3 C 87 % 41 % 1021,8 hPa 0,0 l/m 5,3 km/h (1 Bft) N 360 5 min 15,6 C 30,3 C 18,8 km/h (3 Bft)
23.07.2019 15:00 30,4 C 87 % 41 % 1021,8 hPa 0,0 l/m 4,8 km/h (1 Bft) N-NW 337 5 min 15,6 C 30,4 C 15,4 km/h (3 Bft)
23.07.2019 14:55 30,3 C 86 % 42 % 1021,8 hPa 0,0 l/m 2,6 km/h (1 Bft) SW 225 5 min 15,9 C 30,3 C 7,7 km/h (2 Bft)
23.07.2019 14:50 29,9 C 87 % 48 % 1021,8 hPa 0,0 l/m 2,4 km/h (1 Bft) S 180 5 min 17,7 C 29,9 C 3,4 km/h (1 Bft)
23.07.2019 14:45 30,0 C 87 % 42 % 1021,8 hPa 0,0 l/m 3,1 km/h (1 Bft) SO 135 5 min 15,7 C 30,0 C 2,4 km/h (1 Bft)
23.07.2019 14:40 29,9 C 88 % 46 % 1021,8 hPa 0,0 l/m 2,1 km/h (1 Bft) S-SO 157 5 min 17,0 C 29,9 C 6,6 km/h (2 Bft)
23.07.2019 14:35 29,4 C 88 % 44 % 1021,8 hPa 0,0 l/m 1,8 km/h (1 Bft) S-SO 157 5 min 15,8 C 29,4 C 1,8 km/h (1 Bft)
23.07.2019 14:30 29,3 C 88 % 43 % 1021,8 hPa 0,0 l/m 2,6 km/h (1 Bft) W-SW 247 5 min 15,4 C 29,3 C 2,7 km/h (1 Bft)
23.07.2019 14:25 29,2 C 88 % 43 % 1021,9 hPa 0,0 l/m 4,5 km/h (1 Bft) N-NO 22 5 min 15,3 C 29,2 C 12,6 km/h (3 Bft)
23.07.2019 14:20 29,3 C 88 % 43 % 1021,9 hPa 0,0 l/m 6,0 km/h (2 Bft) N-NW 337 5 min 15,4 C 29,3 C 5,1 km/h (1 Bft)
23.07.2019 14:15 29,2 C 88 % 44 % 1021,9 hPa 0,0 l/m 4,8 km/h (1 Bft) NW 315 5 min 15,7 C 29,2 C 6,1 km/h (2 Bft)
23.07.2019 14:10 29,0 C 88 % 44 % 1021,9 hPa 0,0 l/m 4,3 km/h (1 Bft) N-NW 337 5 min 15,5 C 29,0 C 9,0 km/h (2 Bft)
23.07.2019 14:05 29,2 C 88 % 44 % 1022,2 hPa 0,0 l/m 3,4 km/h (1 Bft) O-NO 67 5 min 15,7 C 29,2 C 0,0 km/h (0 Bft)
23.07.2019 14:00 29,2 C 88 % 47 % 1022,2 hPa 0,0 l/m 3,7 km/h (1 Bft) W-NW 292 5 min 16,7 C 29,2 C 4,3 km/h (1 Bft)
23.07.2019 13:55 28,8 C 88 % 44 % 1022,2 hPa 0,0 l/m 4,0 km/h (1 Bft) W 270 5 min 15,3 C 28,8 C 4,8 km/h (1 Bft)
23.07.2019 13:50 28,8 C 88 % 44 % 1022,2 hPa 0,0 l/m 3,7 km/h (1 Bft) N-NW 337 5 min 15,3 C 28,8 C 5,0 km/h (1 Bft)
23.07.2019 13:45 28,7 C 88 % 46 % 1022,5 hPa 0,0 l/m 4,5 km/h (1 Bft) W 270 5 min 15,9 C 28,7 C 2,1 km/h (1 Bft)
23.07.2019 13:40 28,9 C 88 % 44 % 1022,5 hPa 0,0 l/m 5,6 km/h (1 Bft) NW 315 5 min 15,4 C 28,9 C 7,1 km/h (2 Bft)
23.07.2019 13:35 28,3 C 88 % 46 % 1022,5 hPa 0,0 l/m 4,3 km/h (1 Bft) N-NW 337 5 min 15,6 C 28,3 C 2,4 km/h (1 Bft)
23.07.2019 13:30 28,1 C 88 % 47 % 1022,5 hPa 0,0 l/m 3,1 km/h (1 Bft) N-NO 22 5 min 15,7 C 28,1 C 9,5 km/h (2 Bft)
23.07.2019 13:25 28,2 C 88 % 47 % 1022,4 hPa 0,0 l/m 3,1 km/h (1 Bft) NW 315 5 min 15,8 C 28,2 C 2,7 km/h (1 Bft)
23.07.2019 13:20 28,1 C 88 % 48 % 1022,4 hPa 0,0 l/m 4,5 km/h (1 Bft) NW 315 5 min 16,0 C 28,1 C 3,4 km/h (1 Bft)
23.07.2019 13:15 28,3 C 88 % 48 % 1022,4 hPa 0,0 l/m 5,5 km/h (1 Bft) N-NO 22 5 min 16,2 C 28,3 C 11,4 km/h (2 Bft)
23.07.2019 13:10 28,1 C 88 % 48 % 1022,4 hPa 0,0 l/m 3,9 km/h (1 Bft) N 360 5 min 16,0 C 28,1 C 8,4 km/h (2 Bft)
23.07.2019 13:05 27,7 C 88 % 50 % 1022,6 hPa 0,0 l/m 3,4 km/h (1 Bft) N-NW 337 5 min 16,3 C 27,7 C 8,9 km/h (2 Bft)
23.07.2019 13:00 27,7 C 88 % 49 % 1022,6 hPa 0,0 l/m 2,7 km/h (1 Bft) NO 45 5 min 16,0 C 27,7 C 1,6 km/h (1 Bft)
23.07.2019 12:55 27,8 C 88 % 51 % 1022,6 hPa 0,0 l/m 2,9 km/h (1 Bft) W 270 5 min 16,7 C 27,8 C 3,7 km/h (1 Bft)
23.07.2019 12:50 27,5 C 88 % 50 % 1022,6 hPa 0,0 l/m 3,1 km/h (1 Bft) N-NO 22 5 min 16,1 C 27,5 C 2,4 km/h (1 Bft)
23.07.2019 12:45 27,6 C 88 % 51 % 1022,8 hPa 0,0 l/m 4,3 km/h (1 Bft) N-NW 337 5 min 16,5 C 27,6 C 9,3 km/h (2 Bft)
23.07.2019 12:40 27,5 C 88 % 52 % 1022,8 hPa 0,0 l/m 4,5 km/h (1 Bft) NW 315 5 min 16,7 C 27,5 C 3,4 km/h (1 Bft)
23.07.2019 12:35 27,0 C 88 % 51 % 1022,8 hPa 0,0 l/m 2,6 km/h (1 Bft) W-SW 247 5 min 16,0 C 27,0 C 3,4 km/h (1 Bft)
23.07.2019 12:30 27,1 C 88 % 51 % 1022,8 hPa 0,0 l/m 1,4 km/h (1 Bft) O-NO 67 5 min 16,1 C 27,1 C 4,5 km/h (1 Bft)
23.07.2019 12:25 26,9 C 87 % 55 % 1022,7 hPa 0,0 l/m 1,9 km/h (1 Bft) S 180 5 min 17,1 C 26,9 C 3,7 km/h (1 Bft)
23.07.2019 12:20 26,9 C 87 % 53 % 1022,7 hPa 0,0 l/m 2,7 km/h (1 Bft) O-SO 112 5 min 16,5 C 26,9 C 3,4 km/h (1 Bft)
23.07.2019 12:15 26,9 C 87 % 54 % 1022,7 hPa 0,0 l/m 3,1 km/h (1 Bft) O-SO 112 5 min 16,8 C 26,9 C 3,7 km/h (1 Bft)
23.07.2019 12:10 26,7 C 87 % 52 % 1022,7 hPa 0,0 l/m 2,9 km/h (1 Bft) NO 45 5 min 16,0 C 26,7 C 4,2 km/h (1 Bft)
23.07.2019 12:05 26,4 C 87 % 54 % 1023,1 hPa 0,0 l/m 2,1 km/h (1 Bft) SO 135 5 min 16,3 C 26,4 C 8,9 km/h (2 Bft)
23.07.2019 12:00 26,3 C 87 % 54 % 1023,1 hPa 0,0 l/m 1,9 km/h (1 Bft) O 90 5 min 16,2 C 26,3 C 2,7 km/h (1 Bft)
23.07.2019 11:55 26,1 C 86 % 56 % 1023,1 hPa 0,0 l/m 2,1 km/h (1 Bft) SO 135 5 min 16,6 C 26,1 C 8,9 km/h (2 Bft)
23.07.2019 11:50 26,1 C 87 % 55 % 1023,1 hPa 0,0 l/m 1,4 km/h (1 Bft) N-NO 22 5 min 16,3 C 26,1 C 0,0 km/h (0 Bft)
23.07.2019 11:45 26,0 C 87 % 58 % 1023,2 hPa 0,0 l/m 1,0 km/h (0 Bft) O-SO 112 5 min 17,1 C 26,0 C 2,7 km/h (1 Bft)
23.07.2019 11:40 26,0 C 88 % 57 % 1023,2 hPa 0,0 l/m 1,4 km/h (1 Bft) S-SO 157 5 min 16,8 C 26,0 C 0,0 km/h (0 Bft)
23.07.2019 11:35 25,9 C 88 % 55 % 1023,2 hPa 0,0 l/m 2,3 km/h (1 Bft) S 180 5 min 16,2 C 25,9 C 0,0 km/h (0 Bft)
23.07.2019 11:30 25,8 C 88 % 56 % 1023,2 hPa 0,0 l/m 2,3 km/h (1 Bft) NO 45 5 min 16,3 C 25,8 C 2,4 km/h (1 Bft)
23.07.2019 11:25 25,7 C 88 % 55 % 1023,2 hPa 0,0 l/m 2,3 km/h (1 Bft) N-NO 22 5 min 16,0 C 25,7 C 5,5 km/h (1 Bft)
23.07.2019 11:20 25,5 C 87 % 56 % 1023,2 hPa 0,0 l/m 2,1 km/h (1 Bft) O-NO 67 5 min 16,1 C 25,5 C 2,9 km/h (1 Bft)
23.07.2019 11:15 25,2 C 88 % 58 % 1023,2 hPa 0,0 l/m 1,8 km/h (1 Bft) N-NW 337 5 min 16,3 C 25,2 C 4,0 km/h (1 Bft)
23.07.2019 11:10 25,3 C 87 % 55 % 1023,2 hPa 0,0 l/m 1,8 km/h (1 Bft) N-NO 22 5 min 15,6 C 25,3 C 1,8 km/h (1 Bft)
23.07.2019 11:05 25,2 C 88 % 57 % 1023,2 hPa 0,0 l/m 1,4 km/h (1 Bft) N-NO 22 5 min 16,1 C 25,2 C 8,4 km/h (2 Bft)
23.07.2019 11:00 25,0 C 87 % 59 % 1023,2 hPa 0,0 l/m 2,3 km/h (1 Bft) N-NW 337 5 min 16,4 C 25,0 C 0,0 km/h (0 Bft)
23.07.2019 10:55 24,9 C 87 % 58 % 1023,2 hPa 0,0 l/m 3,4 km/h (1 Bft) W-SW 247 5 min 16,1 C 24,9 C 2,6 km/h (1 Bft)
23.07.2019 10:50 24,7 C 87 % 60 % 1023,2 hPa 0,0 l/m 2,3 km/h (1 Bft) W 270 5 min 16,4 C 24,7 C 6,9 km/h (2 Bft)
23.07.2019 10:45 24,5 C 86 % 63 % 1023,3 hPa 0,0 l/m 1,8 km/h (1 Bft) NW 315 5 min 17,0 C 24,5 C 4,2 km/h (1 Bft)
23.07.2019 10:40 24,2 C 86 % 61 % 1023,3 hPa 0,0 l/m 2,6 km/h (1 Bft) NW 315 5 min 16,2 C 24,2 C 4,2 km/h (1 Bft)
23.07.2019 10:35 23,9 C 85 % 62 % 1023,3 hPa 0,0 l/m 2,6 km/h (1 Bft) W-SW 247 5 min 16,2 C 23,9 C 2,1 km/h (1 Bft)
23.07.2019 10:30 23,7 C 85 % 63 % 1023,3 hPa 0,0 l/m 2,9 km/h (1 Bft) S-SW 202 5 min 16,2 C 23,7 C 2,6 km/h (1 Bft)
23.07.2019 10:25 23,7 C 85 % 65 % 1023,3 hPa 0,0 l/m 2,7 km/h (1 Bft) S-SO 157 5 min 16,7 C 23,7 C 6,3 km/h (2 Bft)
23.07.2019 10:20 23,7 C 86 % 64 % 1023,3 hPa 0,0 l/m 1,9 km/h (1 Bft) S 180 5 min 16,5 C 23,7 C 3,5 km/h (1 Bft)
23.07.2019 10:15 23,5 C 86 % 64 % 1023,3 hPa 0,0 l/m 1,4 km/h (1 Bft) O-SO 112 5 min 16,3 C 23,5 C 4,3 km/h (1 Bft)
23.07.2019 10:10 23,5 C 86 % 65 % 1023,3 hPa 0,0 l/m 1,4 km/h (1 Bft) SO 135 5 min 16,5 C 23,5 C 1,8 km/h (1 Bft)
23.07.2019 10:05 23,0 C 87 % 66 % 1023,6 hPa 0,0 l/m 1,1 km/h (1 Bft) S 180 5 min 16,3 C 23,0 C 2,9 km/h (1 Bft)
23.07.2019 10:00 22,8 C 87 % 65 % 1023,6 hPa 0,0 l/m 0,5 km/h (0 Bft) W 270 5 min 15,9 C 22,8 C 0,0 km/h (0 Bft)
23.07.2019 09:55 22,7 C 86 % 69 % 1023,6 hPa 0,0 l/m 0,5 km/h (0 Bft) S 180 5 min 16,7 C 22,7 C 4,2 km/h (1 Bft)
23.07.2019 09:50 22,5 C 86 % 70 % 1023,6 hPa 0,0 l/m 0,8 km/h (0 Bft) S 180 5 min 16,7 C 22,5 C 0,0 km/h (0 Bft)
23.07.2019 09:45 22,6 C 86 % 68 % 1023,6 hPa 0,0 l/m 1,1 km/h (1 Bft) S-SO 157 5 min 16,4 C 22,6 C 2,9 km/h (1 Bft)
23.07.2019 09:40 22,3 C 86 % 68 % 1023,6 hPa 0,0 l/m 0,5 km/h (0 Bft) NO 45 5 min 16,1 C 22,3 C 0,0 km/h (0 Bft)
23.07.2019 09:35 21,7 C 86 % 69 % 1023,6 hPa 0,0 l/m 0,8 km/h (0 Bft) O-NO 67 5 min 15,8 C 21,7 C 2,7 km/h (1 Bft)
23.07.2019 09:30 21,3 C 86 % 71 % 1023,6 hPa 0,0 l/m 0,6 km/h (0 Bft) S-SO 157 5 min 15,8 C 21,3 C 0,0 km/h (0 Bft)
23.07.2019 09:25 20,9 C 85 % 75 % 1023,7 hPa 0,0 l/m 0,5 km/h (0 Bft) W-SW 247 5 min 16,3 C 20,9 C 0,0 km/h (0 Bft)
23.07.2019 09:20 20,7 C 85 % 76 % 1023,7 hPa 0,0 l/m 0,6 km/h (0 Bft) O 90 5 min 16,3 C 20,7 C 0,0 km/h (0 Bft)
23.07.2019 09:15 20,2 C 85 % 77 % 1023,7 hPa 0,0 l/m 0,8 km/h (0 Bft) N 360 5 min 16,0 C 20,2 C 2,3 km/h (1 Bft)
23.07.2019 09:10 19,9 C 85 % 78 % 1023,7 hPa 0,0 l/m 1,0 km/h (0 Bft) NO 45 0 min 15,9 C 19,9 C 2,1 km/h (1 Bft)
23.07.2019 09:05 19,3 C 85 % 81 % 1023,4 hPa 0,0 l/m 0,8 km/h (0 Bft) N-NW 337 0 min 16,0 C 19,3 C 2,4 km/h (1 Bft)
23.07.2019 09:00 18,9 C 84 % 83 % 1023,4 hPa 0,0 l/m 0,6 km/h (0 Bft) N-NW 337 0 min 15,9 C 18,9 C 0,0 km/h (0 Bft)
23.07.2019 08:55 18,5 C 84 % 83 % 1023,4 hPa 0,0 l/m 0,6 km/h (0 Bft) N-NO 22 0 min 15,6 C 18,5 C 4,0 km/h (1 Bft)
23.07.2019 08:50 18,1 C 83 % 85 % 1023,4 hPa 0,0 l/m 0,6 km/h (0 Bft) NW 315 0 min 15,5 C 18,1 C 0,0 km/h (0 Bft)
23.07.2019 08:45 18,0 C 82 % 85 % 1023,9 hPa 0,0 l/m 0,6 km/h (0 Bft) W-NW 292 0 min 15,4 C 18,0 C 3,7 km/h (1 Bft)
23.07.2019 08:40 17,8 C 82 % 85 % 1023,9 hPa 0,0 l/m 0,3 km/h (0 Bft) NW 315 0 min 15,2 C 17,8 C 0,0 km/h (0 Bft)
23.07.2019 08:35 17,7 C 81 % 86 % 1023,9 hPa 0,0 l/m 0,6 km/h (0 Bft) SW 225 0 min 15,3 C 17,7 C 0,0 km/h (0 Bft)
23.07.2019 08:30 17,5 C 81 % 87 % 1023,9 hPa 0,0 l/m 0,3 km/h (0 Bft) W 270 0 min 15,3 C 17,5 C 0,0 km/h (0 Bft)
23.07.2019 08:25 17,3 C 80 % 87 % 1023,8 hPa 0,0 l/m 0,0 km/h (0 Bft) W-SW 247 0 min 15,1 C 17,3 C 1,8 km/h (1 Bft)
23.07.2019 08:20 17,1 C 79 % 87 % 1023,8 hPa 0,0 l/m 0,0 km/h (0 Bft) W-NW 292 0 min 14,9 C 17,1 C 0,0 km/h (0 Bft)
23.07.2019 08:15 17,0 C 78 % 88 % 1023,8 hPa 0,0 l/m 0,0 km/h (0 Bft) W 270 0 min 15,0 C 17,0 C 0,0 km/h (0 Bft)
23.07.2019 08:10 16,9 C 78 % 88 % 1023,8 hPa 0,0 l/m 0,0 km/h (0 Bft) W-NW 292 0 min 14,9 C 16,9 C 0,0 km/h (0 Bft)
23.07.2019 08:05 16,7 C 77 % 88 % 1023,5 hPa 0,0 l/m 1,1 km/h (1 Bft) NW 315 0 min 14,7 C 16,7 C 0,0 km/h (0 Bft)
23.07.2019 08:00 16,6 C 76 % 88 % 1023,5 hPa 0,0 l/m 1,3 km/h (1 Bft) N 360 0 min 14,6 C 16,6 C 0,0 km/h (0 Bft)
23.07.2019 07:55 16,4 C 75 % 89 % 1023,5 hPa 0,0 l/m 0,8 km/h (0 Bft) NO 45 0 min 14,6 C 16,4 C 3,1 km/h (1 Bft)
23.07.2019 07:50 16,3 C 74 % 89 % 1023,5 hPa 0,0 l/m 0,5 km/h (0 Bft) O-NO 67 0 min 14,5 C 16,3 C 0,0 km/h (0 Bft)
23.07.2019 07:45 16,0 C 73 % 90 % 1023,5 hPa 0,0 l/m 1,0 km/h (0 Bft) N-NO 22 0 min 14,4 C 16,0 C 3,4 km/h (1 Bft)
23.07.2019 07:40 15,9 C 73 % 90 % 1023,5 hPa 0,0 l/m 1,1 km/h (1 Bft) W 270 0 min 14,3 C 15,9 C 0,0 km/h (0 Bft)
23.07.2019 07:35 15,6 C 71 % 90 % 1023,5 hPa 0,0 l/m 0,5 km/h (0 Bft) N-NO 22 0 min 14,0 C 15,6 C 3,4 km/h (1 Bft)
23.07.2019 07:30 15,4 C 70 % 90 % 1023,5 hPa 0,0 l/m 0,2 km/h (0 Bft) NO 45 0 min 13,8 C 15,4 C 2,3 km/h (1 Bft)
23.07.2019 07:25 15,2 C 69 % 91 % 1023,6 hPa 0,0 l/m 0,0 km/h (0 Bft) O-NO 67 0 min 13,7 C 15,2 C 0,0 km/h (0 Bft)
23.07.2019 07:20 15,0 C 69 % 91 % 1023,6 hPa 0,0 l/m 0,2 km/h (0 Bft) O-NO 67 0 min 13,5 C 15,0 C 0,0 km/h (0 Bft)
23.07.2019 07:15 14,8 C 67 % 91 % 1023,6 hPa 0,0 l/m 0,2 km/h (0 Bft) N 360 0 min 13,3 C 14,8 C 0,0 km/h (0 Bft)
23.07.2019 07:10 14,6 C 66 % 91 % 1023,6 hPa 0,0 l/m 0,2 km/h (0 Bft) N-NO 22 0 min 13,1 C 14,6 C 2,1 km/h (1 Bft)
23.07.2019 07:05 14,4 C 65 % 91 % 1023,4 hPa 0,0 l/m 0,0 km/h (0 Bft) W-SW 247 0 min 12,9 C 14,4 C 0,0 km/h (0 Bft)
23.07.2019 07:00 14,2 C 63 % 92 % 1023,4 hPa 0,0 l/m 0,0 km/h (0 Bft) W 270 0 min 12,9 C 14,2 C 0,0 km/h (0 Bft)
23.07.2019 06:55 14,1 C 62 % 92 % 1023,4 hPa 0,0 l/m 0,0 km/h (0 Bft) NW 315 0 min 12,8 C 14,1 C 0,0 km/h (0 Bft)
23.07.2019 06:50 13,8 C 60 % 92 % 1023,4 hPa 0,0 l/m 0,0 km/h (0 Bft) O-SO 112 0 min 12,5 C 13,8 C 0,0 km/h (0 Bft)
23.07.2019 06:45 13,5 C 58 % 92 % 1023,3 hPa 0,0 l/m 0,0 km/h (0 Bft) SO 135 0 min 12,2 C 13,5 C 0,0 km/h (0 Bft)
23.07.2019 06:40 13,2 C 56 % 92 % 1023,3 hPa 0,0 l/m 0,0 km/h (0 Bft) SO 135 0 min 11,9 C 13,2 C 0,0 km/h (0 Bft)
23.07.2019 06:35 12,9 C 53 % 92 % 1023,3 hPa 0,0 l/m 0,0 km/h (0 Bft) SW 225 0 min 11,6 C 12,9 C 0,0 km/h (0 Bft)
23.07.2019 06:30 12,8 C 52 % 92 % 1023,3 hPa 0,0 l/m 0,0 km/h (0 Bft) SW 225 0 min 11,5 C 12,8 C 0,0 km/h (0 Bft)
23.07.2019 06:25 12,6 C 49 % 92 % 1023,4 hPa 0,0 l/m 0,2 km/h (0 Bft) W-SW 247 0 min 11,3 C 12,6 C 0,0 km/h (0 Bft)
23.07.2019 06:20 12,6 C 46 % 91 % 1023,4 hPa 0,0 l/m 0,2 km/h (0 Bft) W-SW 247 0 min 11,2 C 12,6 C 0,0 km/h (0 Bft)
23.07.2019 06:15 12,6 C 43 % 91 % 1023,4 hPa 0,0 l/m 0,0 km/h (0 Bft) S-SW 202 0 min 11,2 C 12,6 C 0,0 km/h (0 Bft)
23.07.2019 06:10 12,6 C 40 % 91 % 1023,4 hPa 0,0 l/m 0,0 km/h (0 Bft) W-SW 247 0 min 11,2 C 12,6 C 0,0 km/h (0 Bft)
23.07.2019 06:05 12,6 C 37 % 91 % 1023,3 hPa 0,0 l/m 0,0 km/h (0 Bft) SO 135 0 min 11,2 C 12,6 C 0,0 km/h (0 Bft)
23.07.2019 06:00 12,6 C 34 % 91 % 1023,3 hPa 0,0 l/m 0,0 km/h (0 Bft) SO 135 0 min 11,2 C 12,6 C 0,0 km/h (0 Bft)
23.07.2019 05:55 12,6 C 30 % 91 % 1023,3 hPa 0,0 l/m 0,0 km/h (0 Bft) SW 225 0 min 11,2 C 12,6 C 0,0 km/h (0 Bft)
23.07.2019 05:50 12,7 C 25 % 91 % 1023,3 hPa 0,0 l/m 0,0 km/h (0 Bft) W-SW 247 0 min 11,3 C 12,7 C 0,0 km/h (0 Bft)
23.07.2019 05:45 12,7 C 17 % 91 % 1023,1 hPa 0,0 l/m 0,0 km/h (0 Bft) W-SW 247 0 min 11,3 C 12,7 C 0,0 km/h (0 Bft)
23.07.2019 05:40 12,7 C 14 % 91 % 1023,1 hPa 0,0 l/m 0,0 km/h (0 Bft) SW 225 0 min 11,3 C 12,7 C 0,0 km/h (0 Bft)
23.07.2019 05:35 12,9 C 9 % 91 % 1023,1 hPa 0,0 l/m 0,0 km/h (0 Bft) S-SW 202 0 min 11,5 C 12,9 C 0,0 km/h (0 Bft)
23.07.2019 05:30 12,9 C 6 % 91 % 1023,1 hPa 0,0 l/m 0,0 km/h (0 Bft) W-SW 247 0 min 11,5 C 12,9 C 0,0 km/h (0 Bft)
23.07.2019 05:25 12,9 C 3 % 91 % 1023,1 hPa 0,0 l/m 0,0 km/h (0 Bft) SW 225 0 min 11,5 C 12,9 C 0,0 km/h (0 Bft)
23.07.2019 05:20 12,9 C 0 % 91 % 1023,1 hPa 0,0 l/m 0,0 km/h (0 Bft) W-SW 247 0 min 11,5 C 12,9 C 0,0 km/h (0 Bft)
23.07.2019 05:15 13,0 C 0 % 91 % 1023,1 hPa 0,0 l/m 0,0 km/h (0 Bft) SW 225 0 min 11,6 C 13,0 C 0,0 km/h (0 Bft)
23.07.2019 05:10 12,9 C 0 % 91 % 1023,1 hPa 0,0 l/m 0,0 km/h (0 Bft) SW 225 0 min 11,5 C 12,9 C 0,0 km/h (0 Bft)
23.07.2019 05:05 13,1 C 0 % 91 % 1023,2 hPa 0,0 l/m 0,0 km/h (0 Bft) W-SW 247 0 min 11,7 C 13,1 C 0,0 km/h (0 Bft)
23.07.2019 05:00 13,1 C 0 % 91 % 1023,2 hPa 0,0 l/m 0,0 km/h (0 Bft) W-SW 247 0 min 11,7 C 13,1 C 0,0 km/h (0 Bft)
23.07.2019 04:55 13,1 C 0 % 91 % 1023,2 hPa 0,0 l/m 0,2 km/h (0 Bft) W 270 0 min 11,7 C 13,1 C 0,0 km/h (0 Bft)
23.07.2019 04:50 13,2 C 0 % 91 % 1023,2 hPa 0,0 l/m 0,2 km/h (0 Bft) W-SW 247 0 min 11,8 C 13,2 C 0,0 km/h (0 Bft)
23.07.2019 04:45 13,2 C 0 % 91 % 1023,3 hPa 0,0 l/m 0,0 km/h (0 Bft) S-SW 202 0 min 11,8 C 13,2 C 0,0 km/h (0 Bft)
23.07.2019 04:40 13,3 C 0 % 91 % 1023,3 hPa 0,0 l/m 0,0 km/h (0 Bft) SW 225 0 min 11,9 C 13,3 C 0,0 km/h (0 Bft)
23.07.2019 04:35 13,3 C 0 % 91 % 1023,3 hPa 0,0 l/m 0,0 km/h (0 Bft) SO 135 0 min 11,9 C 13,3 C 0,0 km/h (0 Bft)
23.07.2019 04:30 13,3 C 0 % 91 % 1023,3 hPa 0,0 l/m 0,0 km/h (0 Bft) O-NO 67 0 min 11,9 C 13,3 C 0,0 km/h (0 Bft)
23.07.2019 04:25 13,4 C 0 % 91 % 1023,1 hPa 0,0 l/m 0,2 km/h (0 Bft) NO 45 0 min 12,0 C 13,4 C 0,0 km/h (0 Bft)
23.07.2019 04:20 13,4 C 0 % 91 % 1023,1 hPa 0,0 l/m 0,2 km/h (0 Bft) N-NO 22 0 min 12,0 C 13,4 C 0,0 km/h (0 Bft)
23.07.2019 04:15 13,4 C 0 % 90 % 1023,1 hPa 0,0 l/m 0,0 km/h (0 Bft) N-NW 337 0 min 11,8 C 13,4 C 0,0 km/h (0 Bft)
23.07.2019 04:10 13,5 C 0 % 90 % 1023,1 hPa 0,0 l/m 0,0 km/h (0 Bft) N-NO 22 0 min 11,9 C 13,5 C 0,0 km/h (0 Bft)
23.07.2019 04:05 13,5 C 0 % 90 % 1023,2 hPa 0,0 l/m 0,0 km/h (0 Bft) S-SW 202 0 min 11,9 C 13,5 C 0,0 km/h (0 Bft)
23.07.2019 04:00 13,5 C 0 % 90 % 1023,2 hPa 0,0 l/m 0,0 km/h (0 Bft) W 270 0 min 11,9 C 13,5 C 0,0 km/h (0 Bft)
23.07.2019 03:55 13,6 C 0 % 89 % 1023,2 hPa 0,0 l/m 0,0 km/h (0 Bft) W 270 0 min 11,8 C 13,6 C 0,0 km/h (0 Bft)
23.07.2019 03:50 13,7 C 0 % 89 % 1023,2 hPa 0,0 l/m 0,0 km/h (0 Bft) SW 225 0 min 11,9 C 13,7 C 0,0 km/h (0 Bft)
23.07.2019 03:45 13,8 C 0 % 89 % 1023,6 hPa 0,0 l/m 0,0 km/h (0 Bft) S 180 0 min 12,0 C 13,8 C 0,0 km/h (0 Bft)
23.07.2019 03:40 13,8 C 0 % 89 % 1023,6 hPa 0,0 l/m 0,0 km/h (0 Bft) S-SO 157 0 min 12,0 C 13,8 C 0,0 km/h (0 Bft)
23.07.2019 03:35 13,9 C 0 % 89 % 1023,6 hPa 0,0 l/m 0,0 km/h (0 Bft) S 180 0 min 12,1 C 13,9 C 0,0 km/h (0 Bft)
23.07.2019 03:30 14,0 C 0 % 89 % 1023,6 hPa 0,0 l/m 0,0 km/h (0 Bft) SW 225 0 min 12,2 C 14,0 C 0,0 km/h (0 Bft)
23.07.2019 03:25 14,0 C 0 % 89 % 1023,6 hPa 0,0 l/m 0,0 km/h (0 Bft) NW 315 0 min 12,2 C 14,0 C 0,0 km/h (0 Bft)
23.07.2019 03:20 14,0 C 0 % 89 % 1023,6 hPa 0,0 l/m 0,0 km/h (0 Bft) W-SW 247 0 min 12,2 C 14,0 C 0,0 km/h (0 Bft)
23.07.2019 03:16 14,1 C 0 % 89 % 1023,6 hPa 0,0 l/m 0,0 km/h (0 Bft) W-SW 247 0 min 12,3 C 14,1 C 0,0 km/h (0 Bft)
23.07.2019 03:15 14,1 C 0 % 89 % 1023,6 hPa 0,0 l/m 0,0 km/h (0 Bft) W-SW 247 0 min 12,3 C 14,1 C 0,0 km/h (0 Bft)
23.07.2019 03:10 14,1 C 0 % 89 % 1023,6 hPa 0,0 l/m 0,0 km/h (0 Bft) W-SW 247 0 min 12,3 C 14,1 C 0,0 km/h (0 Bft)
23.07.2019 03:05 14,2 C 0 % 89 % 1023,6 hPa 0,0 l/m 0,0 km/h (0 Bft) W 270 0 min 12,4 C 14,2 C 0,0 km/h (0 Bft)
23.07.2019 03:00 14,3 C 0 % 89 % 1023,6 hPa 0,0 l/m 0,0 km/h (0 Bft) W-SW 247 0 min 12,5 C 14,3 C 0,0 km/h (0 Bft)
23.07.2019 02:55 14,4 C 0 % 88 % 1023,6 hPa 0,0 l/m 0,0 km/h (0 Bft) SW 225 0 min 12,4 C 14,4 C 0,0 km/h (0 Bft)
23.07.2019 02:50 14,4 C 0 % 88 % 1023,6 hPa 0,0 l/m 0,0 km/h (0 Bft) S 180 0 min 12,4 C 14,4 C 0,0 km/h (0 Bft)
23.07.2019 02:45 14,5 C 0 % 88 % 1024,2 hPa 0,0 l/m 0,0 km/h (0 Bft) S-SW 202 0 min 12,5 C 14,5 C 0,0 km/h (0 Bft)
23.07.2019 02:40 14,6 C 0 % 88 % 1024,2 hPa 0,0 l/m 0,0 km/h (0 Bft) S 180 0 min 12,6 C 14,6 C 0,0 km/h (0 Bft)
23.07.2019 02:35 14,7 C 0 % 88 % 1024,2 hPa 0,0 l/m 0,0 km/h (0 Bft) S 180 0 min 12,7 C 14,7 C 0,0 km/h (0 Bft)
23.07.2019 02:30 14,7 C 0 % 89 % 1024,2 hPa 0,0 l/m 0,0 km/h (0 Bft) W-SW 247 0 min 12,9 C 14,7 C 0,0 km/h (0 Bft)
23.07.2019 02:25 14,7 C 0 % 89 % 1023,6 hPa 0,0 l/m 0,0 km/h (0 Bft) W 270 0 min 12,9 C 14,7 C 0,0 km/h (0 Bft)
23.07.2019 02:20 14,8 C 0 % 88 % 1023,6 hPa 0,0 l/m 0,0 km/h (0 Bft) N-NO 22 0 min 12,8 C 14,8 C 0,0 km/h (0 Bft)
23.07.2019 02:15 14,8 C 0 % 88 % 1023,6 hPa 0,0 l/m 0,0 km/h (0 Bft) N-NO 22 0 min 12,8 C 14,8 C 0,0 km/h (0 Bft)
23.07.2019 02:10 14,9 C 0 % 88 % 1023,6 hPa 0,0 l/m 0,0 km/h (0 Bft) N-NO 22 0 min 12,9 C 14,9 C 0,0 km/h (0 Bft)
23.07.2019 02:05 14,9 C 0 % 88 % 1023,6 hPa 0,0 l/m 0,0 km/h (0 Bft) N-NW 337 0 min 12,9 C 14,9 C 0,0 km/h (0 Bft)
23.07.2019 02:00 14,9 C 0 % 88 % 1023,6 hPa 0,0 l/m 0,0 km/h (0 Bft) N-NW 337 0 min 12,9 C 14,9 C 0,0 km/h (0 Bft)
23.07.2019 01:55 15,0 C 0 % 87 % 1023,6 hPa 0,0 l/m 0,0 km/h (0 Bft) W 270 0 min 12,9 C 15,0 C 0,0 km/h (0 Bft)
23.07.2019 01:50 15,1 C 0 % 87 % 1023,6 hPa 0,0 l/m 0,0 km/h (0 Bft) S-SO 157 0 min 13,0 C 15,1 C 0,0 km/h (0 Bft)
23.07.2019 01:45 15,2 C 0 % 87 % 1023,3 hPa 0,0 l/m 0,0 km/h (0 Bft) S-SO 157 0 min 13,0 C 15,2 C 0,0 km/h (0 Bft)
23.07.2019 01:40 15,3 C 0 % 87 % 1023,3 hPa 0,0 l/m 0,0 km/h (0 Bft) N-NO 22 0 min 13,1 C 15,3 C 0,0 km/h (0 Bft)
23.07.2019 01:35 15,4 C 0 % 87 % 1023,3 hPa 0,0 l/m 0,0 km/h (0 Bft) W 270 0 min 13,2 C 15,4 C 0,0 km/h (0 Bft)
23.07.2019 01:30 15,4 C 0 % 87 % 1023,3 hPa 0,0 l/m 0,2 km/h (0 Bft) S-SW 202 0 min 13,2 C 15,4 C 0,0 km/h (0 Bft)
23.07.2019 01:25 15,5 C 0 % 87 % 1023,5 hPa 0,0 l/m 0,0 km/h (0 Bft) S 180 0 min 13,3 C 15,5 C 1,6 km/h (1 Bft)
23.07.2019 01:20 15,6 C 0 % 87 % 1023,5 hPa 0,0 l/m 0,0 km/h (0 Bft) SW 225 0 min 13,4 C 15,6 C 0,0 km/h (0 Bft)
23.07.2019 01:15 15,6 C 0 % 86 % 1023,5 hPa 0,0 l/m 0,0 km/h (0 Bft) W-NW 292 0 min 13,3 C 15,6 C 0,0 km/h (0 Bft)
23.07.2019 01:10 15,7 C 0 % 86 % 1023,5 hPa 0,0 l/m 0,0 km/h (0 Bft) W 270 0 min 13,4 C 15,7 C 0,0 km/h (0 Bft)
23.07.2019 01:05 15,7 C 0 % 85 % 1023,6 hPa 0,0 l/m 0,0 km/h (0 Bft) S 180 0 min 13,2 C 15,7 C 0,0 km/h (0 Bft)
23.07.2019 01:00 15,8 C 0 % 85 % 1023,6 hPa 0,0 l/m 0,0 km/h (0 Bft) S 180 0 min 13,3 C 15,8 C 0,0 km/h (0 Bft)
23.07.2019 00:55 15,9 C 0 % 85 % 1023,6 hPa 0,0 l/m 0,0 km/h (0 Bft) S-SO 157 0 min 13,4 C 15,9 C 0,0 km/h (0 Bft)
23.07.2019 00:50 16,0 C 0 % 85 % 1023,6 hPa 0,0 l/m 0,0 km/h (0 Bft) N-NW 337 0 min 13,5 C 16,0 C 0,0 km/h (0 Bft)
23.07.2019 00:45 16,1 C 0 % 85 % 1023,8 hPa 0,0 l/m 0,0 km/h (0 Bft) S-SW 202 0 min 13,6 C 16,1 C 0,0 km/h (0 Bft)
23.07.2019 00:40 16,1 C 0 % 84 % 1023,8 hPa 0,0 l/m 0,0 km/h (0 Bft) SW 225 0 min 13,4 C 16,1 C 0,0 km/h (0 Bft)
23.07.2019 00:35 16,3 C 0 % 84 % 1023,8 hPa 0,0 l/m 0,0 km/h (0 Bft) S 180 0 min 13,6 C 16,3 C 0,0 km/h (0 Bft)
23.07.2019 00:30 16,3 C 0 % 84 % 1023,8 hPa 0,0 l/m 0,0 km/h (0 Bft) S-SO 157 0 min 13,6 C 16,3 C 0,0 km/h (0 Bft)
23.07.2019 00:25 16,5 C 0 % 83 % 1023,5 hPa 0,0 l/m 0,0 km/h (0 Bft) SW 225 0 min 13,6 C 16,5 C 0,0 km/h (0 Bft)
23.07.2019 00:20 16,5 C 0 % 83 % 1023,5 hPa 0,0 l/m 0,0 km/h (0 Bft) SW 225 0 min 13,6 C 16,5 C 0,0 km/h (0 Bft)
23.07.2019 00:15 16,7 C 0 % 83 % 1023,5 hPa 0,0 l/m 0,0 km/h (0 Bft) S 180 0 min 13,8 C 16,7 C 0,0 km/h (0 Bft)
23.07.2019 00:10 16,7 C 0 % 83 % 1023,5 hPa 0,0 l/m 0,6 km/h (0 Bft) S 180 0 min 13,8 C 16,7 C 0,0 km/h (0 Bft)
23.07.2019 00:05 16,8 C 0 % 83 % 1023,6 hPa 0,0 l/m 0,8 km/h (0 Bft) S-SW 202 0 min 13,9 C 16,8 C 0,0 km/h (0 Bft)
23.07.2019 00:00 16,9 C 0 % 83 % 1023,6 hPa 0,0 l/m 0,6 km/h (0 Bft) W-SW 247 0 min 14,0 C 16,9 C 3,5 km/h (1 Bft)
_ Min-Zeit 05:55 - 17:15 20:30 - 00:15 - - - 05:55 05:55 00:05
Minimum _ 12,6 C - 38 % 1019,6 hPa - 0,0 km/h (0 Bft) - - - 11,2 C 12,6 C 0,0 km/h (0 Bft)
_ Max-Zeit 18:05 15:30 06:25 02:30 00:00 16:10 - - 09:15 14:50 18:05 15:05
Maximum _ 31,7 C 89 % 92 % 1024,2 hPa 0,0 l/m 6,3 km/h
N-NO (2 Bft)
- - 5 min 17,7 C 31,7 C 18,8 km/h
N (3 Bft)
Durchschnitt _ 22,4 C #11:40 h 66 % 1022,1 hPa #0,0 l/m 1,4 km/h (1 Bft) N-NO - #11:40 h 14,8 C 22,4 C 2,0 km/h (1 Bft)